Regional Weather Roundup
Issued by NWS Wakefield, VA

Home | Current Version | Previous Version | Text Only | Print | Product List | Glossary Off
Versions: 1 2 3 4 5 6 7 8 9 10 11 12 13 14 15 16 17 18 19 20 21 22 23 24 25 26 27 28 29 30 31 32 33 34 35 36 37 38 39 40 41 42 43 44 45 46 47 48 49 50

000
ASUS41 KAKQ 030715
RWRAKQ

REGIONAL WEATHER ROUNDUP
NATIONAL WEATHER SERVICE WAKEFIELD VA
300 AM EDT THU SEP 03 2015

Note: "fair" indicates few or no clouds below 12,000 feet with no
significant weather and/or obstructions to visibility. * = Denotes
station may not report precipitation (e.g., rain,snow,etc.),
thunder or fog.

VAZ042-051-052>054-056-030800-
NORTHERN VIRGINIA

CITY           SKY/WX    TMP DP  RH WIND       PRES   REMARKS
WASH NATIONAL  CLEAR     76  67  73 W5        29.91F
DULLES         CLEAR     68  66  93 CALM      29.93F
FORT BELVOIR   CLEAR     68  66  94 CALM      29.91F FOG
QUANTICO       CLEAR     71  65  81 CALM      29.92F
FREDERICKSBRG* CLEAR     71  70  98 CALM      29.91F
STAFFORD*      CLEAR     65  64  93 CALM      29.96F
WARRENTON      CLEAR     67  67  99 CALM      29.92F
CULPEPER*      CLEAR     64  64  99 CALM      29.94F FOG
MANASSAS*      CLEAR     66  66 100 CALM      29.92F
LEESBURG*      CLEAR     70  70 100 W3        29.93F
WINCHESTER     CLEAR     68  64  88 CALM      29.96F
FRONT ROYAL*   FAIR      66  64  94 S7        29.96S
LURAY*         FOG       63  63 100 CALM      29.98F VSB 1/4
$$

VAZ048-049-060>072-079>083-030800-
CENTRAL AND SOUTH CENTRAL VIRGINIA

CITY           SKY/WX    TMP DP  RH WIND       PRES   REMARKS
RICHMOND       CLEAR     70  66  87 NW3       29.93F
CHESTERFIELD*  FAIR      68  55  64 CALM      29.95F
PETERSBURG*    CLEAR     66  66 100 CALM      29.95F FOG
HANOVER        CLEAR     68  66  93 W3        29.95F
TAPPAHANNOCK*  CLEAR     69  65  88 CALM      29.93F
QUINTON*       FAIR      68  67  97 CALM      29.92F
CHARLOTTSVILLE CLEAR     66  64  93 S3        29.95F
GORDONSVILLE*  FAIR      64  64  97 CALM      29.93F
ORANGE*        CLEAR     68  64  88 CALM      29.95F
LOUISA*        CLEAR     68  66  94 CALM      29.93F FOG
BUMPASS*       FAIR      65  65  99 MISG      29.94F
FARMVILLE*     CLEAR     65  65 100 CALM      29.95F FOG
CREWE*         FAIR     N/A N/A N/A CALM      29.95F
FORT PICKETT*  FAIR      65  65  98 CALM      29.95F
CHASE CITY*    FAIR      68  68 100 CALM      29.97F
CLARKSVILLE*   CLOUDY    68  68 100 CALM      29.96F VSB 1/4
SOUTH HILL*    CLEAR     67  67  99 CALM      30.02S
LAWRENCEVILLE* CLOUDY    66  66 100 CALM      29.95F VSB 1
EMPORIA*       FOG       68  68 100 CALM      29.96F VSB 3/4
$$

VAZ088>098-030800-
SOUTHEAST VIRGINIA

CITY           SKY/WX    TMP DP  RH WIND       PRES   REMARKS
NORFOLK        PTCLDY    74  68  81 W3        29.93S
VIRGINIA BEACH MOCLDY    75  68  78 NW3       29.92F
NORFOLK NAVAL  MOCLDY    75  70  84 W6        29.94F
WEST POINT*    CLEAR     73  68  87 W5        29.94S
SALUDA*        FAIR      71  69  93 N6        29.91F
NEWPORT NEWS   PTCLDY    73  70  90 W3        29.93F
LANGLEY AFB    MOCLDY    72  70  93 W1        29.92F
FORT EUSTIS    PTCLDY    72 N/A N/A NW3       29.91F
WILLIAMSBURG*  PTCLDY    73  72  94 W3        29.94F
HR EXEC AP*      N/A     70  66  88 CALM      29.96S
FRANKLIN*      CLOUDY    69  69  99 W5        29.94F FOG
WAKEFIELD      MOCLDY    71  68  90 W3        29.94F FOG
$$

VAZ020-022-025-037-045-030800-
WEST CENTRAL AND SOUTHWEST VIRGINIA

CITY           SKY/WX    TMP DP  RH WIND       PRES   REMARKS
STAUNTON*        N/A     65  63  93 CALM      30.02F FOG
WAYNESBORO*    FAIR      64  63  94 CALM      30.01F
HOT SPRINGS VA CLEAR     65  59  80 NW8       30.13F
LYNCHBURG      CLEAR     63  62  97 CALM      29.99F
DANVILLE       CLEAR     65  63  93 CALM      29.98F
SOUTH BOSTON*  CLOUDY    64  62  95 CALM      29.97F VSB 1/4
MARTINSVILLE   CLEAR     65  65 100 CALM      30.02F FOG
ROANOKE        CLEAR     68  64  87 NE3       30.02F
BLACKSBURG     CLEAR     65  64  99 CALM      30.09F
DUBLIN*        CLOUDY    65  64  95 SW3       30.08F
MARION*        CLEAR     62  61  95 CALM      30.13F FOG
HILLSVILLE*    CLEAR     69  62  79 W3        30.09F
RICHLANDS*     FAIR      64  37  36 CALM      30.11F
WISE*          PTCLDY    66  64  94 CALM      30.12F
ABINGDON*      PTCLDY    67  63  85 CALM      30.08F
$$

MDZ021>025-VAZ099-100-030800-
SOUTHERN MARYLAND AND THE DELMARVA PENINSULA

CITY           SKY/WX    TMP DP  RH WIND       PRES   REMARKS
PATUXENT RIVER CLEAR     72  67  84 W6        29.90F
BAY BRIDGE APT   N/A     75  68  78 W7        29.89F
LEONARDTOWN    NOT AVBL
DOVER          CLEAR     74  71  93 W6        29.86F
GEORGETOWN     CLEAR     74  71  91 CALM      29.89F FOG
EASTON         NOT AVBL
CAMBRIDGE      CLEAR     72  68  88 CALM      29.89S
SALISBURY      CLEAR     73  71  93 W3        29.89F FOG
OCEAN CITY     CLEAR     74  72  93 W6        29.88F
WALLOPS ISLAND CLEAR     75  72  90 W8        29.90F
ACCOMACK*      CLEAR    N/A N/A N/A W6        29.91F
$$

NCZ012>017-030>032-030800-
NORTH CENTRAL AND EASTERN NORTH CAROLINA

CITY           SKY/WX    TMP DP  RH WIND       PRES   REMARKS
ROANOKE RAPIDS FAIR      66  66 100 SW5       29.95F FOG
RALEIGH        CLOUDY    70  69  97 CALM      29.97S FOG
ELIZABETH CITY CLOUDY    70  69  97 W5        29.93F
AHOSKIE*       MOCLDY    67  67  97 CALM      29.95F FOG
EDENTON*       CLOUDY    72  69  92 CALM      29.93F
CURRITUCK*     CLOUDY    71  68  90 W3        29.94S
KILL DEVIL HLS DRIZZLE   75  69  81 W5        29.91F
MANTEO         CLOUDY    74  69  85 W3        29.92F
CAPE HATTERAS  CLOUDY    77  70  79 NW10      29.95S
TARBORO*       FAIR      69  68  96 CALM      29.96F FOG
GOLDSBORO      LGT RAIN  70  69  99 S9        29.94F FOG
WASHINGTON     MOCLDY    69  68  96 CALM      29.94S
GREENVILLE     MOCLDY    70  70 100 SW3       29.98R
NEW BERN       MOCLDY    72  66  81 CALM      29.96F
WILMINGTON     CLEAR     77  73  87 W3        29.94F
$$

VAZ048-030800-
ELSEWHERE

CITY           SKY/WX    TMP DP  RH WIND       PRES   REMARKS
HARRISBURG PA  PTCLDY    74  66  76 NW9       29.90F
BALTIMORE      CLEAR     72  68  87 W6        29.89F
ANNAPOLIS      CLEAR     76  70  82 NW5       29.89F
ANDREWS AFB    CLEAR     73  68  83 W3        29.90F
PHILADELPHIA   CLEAR     78  65  63 CALM      29.88F
HENDERSON NC   FOG       67  65  93 CALM      29.97F VSB 1/2
GREENSBORO     CLEAR     73  67  81 CALM      29.98F
ROCKY MOUNT    MOCLDY    72  70  93 CALM      29.96S
$$

VAZ100-030800-
MARINE

STATION/POSITION TIME  TEMP    WIND        PRES    WAVE   SWELL
                       AIR SEA DIR/SP/G            HT/PER HT/PER
                 (UTC) (F)     (DEG/KT/KT) (MB)    (FT/S) (FT/S)
BRANDYWINE LGT   0600   76 76  290/  8/  9 1012.4F
CAPE MAY NJ      0600   76 80  290/  2/  4 1011.9F
LEWES DE         0600   75 76  230/  4/  6 1012.0F
15NM E FENWICK I 0650   78 79  250/ 10/ 12 1011.7F   1/14   2/14
OCEAN-CITY-INLET 0600   76 78  300/  7/  9 1011.5F
GOOSES REEF MD   0700   77 80  290/ 12/ 14 1013.2F
COVE POINT MD    0600   75     300/  8/ 12 1013.5F
SOLOMONS ISLAND  0600      81                N/A
BISHOPS HEAD MD  0600   79 80  290/ 14/ 15 1012.1F
PINEY POINT MD   0605          280/  7/  8   N/A
POTOMAC MD       0700   75 80  280/ 10/ 12 1011.6F   1/ 2
CAMBRIDGE MD     0600   77 81  270/  5/  6 1011.8F
LEWISETTA VA     0600   73 81  290/  5/  6 1013.1F
RAPPAHANNOCK LGT 0600          270/ 11/ 13 1013.6F
STINGRAY PT      0700   75 80  270/ 10/ 12 1013.2F   1
YORK RVR RNG VA  0600   76     290/ 10/ 11 1013.0F
YORKTOWN VA      0600   74 81  270/  6/  7 1013.3F
JAMESTOWN VA     0700   74 82  250/  6/  8   N/A
DOMINION TERM VA 0600   75     300/  7/  9 1013.8F
KIPTOPEKE VA     0600      80  290/ 11/ 13   N/A
CHES BAY BRIDGE  0600   76 79  230/ 10/ 12 1013.1F
CAPE HENRY VA    0600   74     260/  5/  9   N/A
CHESAPEAKE LGHT  0600   76     280/ 13/ 14 1014.2F
WILLOUBY STN VA  0600   75     310/  8/  8 1014.6F
CAPE HENRY BUOY  0628      80                N/A     2/13
1ST LANDING BUOY 0700      79              1012.9F   1/ 3
CAPE CHARLES BUO 0626      78                N/A     2/14   2/14
OFFSHORE WE BUOY 0611      79                N/A     2/ 3   2/10
64NM E OF VA BCH 0650   78 79  310/  8/ 10 1012.8F   2/14   2/14
DUCK PIER NC     0600   76 80  270/ 14/ 17 1013.0S
44100 DUCK FRF   0624      80                N/A     2/14
44056 DUCK FRF   0611      81                N/A     1/13
OREGON INLET NC  0600   78 84  270/  9/ 13 1013.9R
HATTERAS NC      0600   81 83  270/ 14/ 16 1014.1F
DIAMOND SHLS NC  0650   82 85  270/ 14/ 16 1013.8F   1/ 8   2/ 8
CAPE LOOKOUT NC  0700   74     360/ 10/ 12 1014.0S
$$



USA.gov is the U.S. government's official web portal to all federal, state and local government web resources and services.